AMX332 MMMX-MMPR

Flight info

Callsign AMX332
Flight time 1h 9m
Altitude 32000
Route SEBON3A SEBON UT124 GDL UJ14N PVR
Aircraft B738/M-SDE2E3FGHIRWXY/LB1

Departure

Time 2026-04-25 23:09
Airport Mexico City Benito Juárez International Airport (MMMX)

Arrival

Time 2026-04-26 00:19
Airport Puerto Vallarta International Airport (MMPR)
Time Latitude Longitude Altitude Speed Heading
2026-04-25 22:28 19.42240 -99.07929 7302 ft 0 kts 209°
2026-04-25 22:54 19.42245 -99.07926 7302 ft 3 kts 209°
2026-04-25 22:54 19.42261 -99.07917 7302 ft 3 kts 209°
2026-04-25 22:54 19.42277 -99.07907 7302 ft 3 kts 222°
2026-04-25 22:54 19.42288 -99.07892 7302 ft 3 kts 253°
2026-04-25 22:55 19.42290 -99.07876 7302 ft 0 kts 273°
2026-04-25 22:59 19.42303 -99.07912 7302 ft 8 kts 299°
2026-04-25 22:59 19.42335 -99.07956 7302 ft 7 kts 309°
2026-04-25 22:59 19.42367 -99.07998 7302 ft 7 kts 305°
2026-04-25 23:00 19.42386 -99.08048 7302 ft 8 kts 288°
2026-04-25 23:00 19.42405 -99.08113 7302 ft 9 kts 287°
2026-04-25 23:00 19.42406 -99.08180 7302 ft 9 kts 250°
2026-04-25 23:00 19.42388 -99.08241 7302 ft 9 kts 268°
2026-04-25 23:01 19.42406 -99.08302 7302 ft 9 kts 292°
2026-04-25 23:01 19.42430 -99.08362 7302 ft 10 kts 293°
2026-04-25 23:01 19.42460 -99.08436 7302 ft 11 kts 293°
2026-04-25 23:01 19.42488 -99.08512 7302 ft 11 kts 287°
2026-04-25 23:02 19.42509 -99.08588 7302 ft 11 kts 283°
2026-04-25 23:02 19.42527 -99.08648 7302 ft 5 kts 291°
2026-04-25 23:02 19.42532 -99.08660 7302 ft 0 kts 293°
2026-04-25 23:05 19.42537 -99.08671 7302 ft 5 kts 293°
2026-04-25 23:05 19.42548 -99.08698 7302 ft 7 kts 293°
2026-04-25 23:05 19.42572 -99.08760 7302 ft 11 kts 293°
2026-04-25 23:05 19.42607 -99.08847 7302 ft 13 kts 293°
2026-04-25 23:06 19.42639 -99.08932 7302 ft 7 kts 292°
2026-04-25 23:06 19.42642 -99.08939 7302 ft 0 kts 291°
2026-04-25 23:07 19.42657 -99.08976 7302 ft 10 kts 292°
2026-04-25 23:08 19.42693 -99.09049 7302 ft 12 kts 321°
2026-04-25 23:08 19.42764 -99.09038 7302 ft 11 kts 42°
2026-04-25 23:08 19.42805 -99.08969 7302 ft 13 kts 59°
2026-04-25 23:08 19.42908 -99.08793 7302 ft 60 kts 58°
2026-04-25 23:09 19.43258 -99.08166 7303 ft 135 kts 59°
2026-04-25 23:09 19.43855 -99.07113 7341 ft 195 kts 59°
2026-04-25 23:09 19.44584 -99.05818 8037 ft 207 kts 59°
2026-04-25 23:09 19.45330 -99.04442 8732 ft 224 kts 60°
2026-04-25 23:10 19.46107 -99.02933 9418 ft 242 kts 62°
2026-04-25 23:10 19.46964 -99.01295 10080 ft 267 kts 59°
2026-04-25 23:10 19.47978 -98.99534 10661 ft 293 kts 57°
2026-04-25 23:10 19.49116 -98.97663 11459 ft 309 kts 56°
2026-04-25 23:11 19.50291 -98.95751 12664 ft 308 kts 61°
2026-04-25 23:11 19.50995 -98.93608 13772 ft 312 kts 82°
2026-04-25 23:11 19.50896 -98.91296 14618 ft 321 kts 108°
2026-04-25 23:11 19.49743 -98.89324 15502 ft 318 kts 139°
2026-04-25 23:12 19.47828 -98.88118 15947 ft 329 kts 159°
2026-04-25 23:12 19.45560 -98.87541 16371 ft 340 kts 175°
2026-04-25 23:12 19.43222 -98.87575 17096 ft 332 kts 187°
2026-04-25 23:12 19.40981 -98.88153 17203 ft 329 kts 202°
2026-04-25 23:13 19.38985 -98.89278 17118 ft 329 kts 216°
2026-04-25 23:13 19.37359 -98.90859 17603 ft 307 kts 233°
2026-04-25 23:13 19.36384 -98.92778 18063 ft 291 kts 254°
2026-04-25 23:13 19.36055 -98.94886 18127 ft 294 kts 269°
2026-04-25 23:14 19.36207 -98.97052 18275 ft 295 kts 279°
2026-04-25 23:14 19.36594 -98.99212 18516 ft 303 kts 282°
2026-04-25 23:14 19.37087 -99.01405 18836 ft 305 kts 284°
2026-04-25 23:14 19.37439 -99.03603 19279 ft 304 kts 271°
2026-04-25 23:15 19.37293 -99.05838 19615 ft 306 kts 262°
2026-04-25 23:15 19.36999 -99.08089 19903 ft 309 kts 263°
2026-04-25 23:15 19.36719 -99.10343 20433 ft 308 kts 262°
2026-04-25 23:15 19.36370 -99.12559 21048 ft 303 kts 260°
2026-04-25 23:16 19.35989 -99.14759 21504 ft 305 kts 259°
2026-04-25 23:16 19.35605 -99.16999 21727 ft 314 kts 260°
2026-04-25 23:16 19.35226 -99.19314 21908 ft 324 kts 260°
2026-04-25 23:16 19.34855 -99.21685 22274 ft 326 kts 261°
2026-04-25 23:17 19.34497 -99.24046 22817 ft 323 kts 261°
2026-04-25 23:17 19.34147 -99.26389 23408 ft 322 kts 261°
2026-04-25 23:17 19.33800 -99.28730 23908 ft 323 kts 261°
2026-04-25 23:17 19.33459 -99.31047 24370 ft 324 kts 261°
2026-04-25 23:18 19.33112 -99.33402 24834 ft 324 kts 261°
2026-04-25 23:18 19.32763 -99.35767 25290 ft 325 kts 261°
2026-04-25 23:18 19.32423 -99.38132 25724 ft 326 kts 264°
2026-04-25 23:18 19.32579 -99.40516 26119 ft 326 kts 285°
2026-04-25 23:19 19.33207 -99.42816 26557 ft 326 kts 287°
2026-04-25 23:19 19.33884 -99.45110 26969 ft 326 kts 287°
2026-04-25 23:19 19.34563 -99.47402 27363 ft 326 kts 287°
2026-04-25 23:19 19.35240 -99.49724 27761 ft 326 kts 287°
2026-04-25 23:20 19.35891 -99.51991 28129 ft 326 kts 287°
2026-04-25 23:20 19.36546 -99.54291 28492 ft 326 kts 287°
2026-04-25 23:20 19.37195 -99.56585 28838 ft 326 kts 287°
2026-04-25 23:20 19.37847 -99.58889 29177 ft 326 kts 286°
2026-04-25 23:21 19.38249 -99.61237 29465 ft 326 kts 269°
2026-04-25 23:21 19.38134 -99.63631 29785 ft 325 kts 265°
2026-04-25 23:21 19.37956 -99.66019 30082 ft 326 kts 265°
2026-04-25 23:21 19.37775 -99.68410 30376 ft 326 kts 265°
2026-04-25 23:22 19.37605 -99.70804 30652 ft 326 kts 266°
2026-04-25 23:22 19.37445 -99.73200 30921 ft 326 kts 266°
2026-04-25 23:22 19.37293 -99.75595 31186 ft 326 kts 266°
2026-04-25 23:23 19.36994 -99.80397 31682 ft 327 kts 266°
2026-04-25 23:23 19.36843 -99.82824 31807 ft 336 kts 266°
2026-04-25 23:23 19.36685 -99.85328 31907 ft 346 kts 266°
2026-04-25 23:23 19.36521 -99.87922 31911 ft 360 kts 266°
2026-04-25 23:24 19.36351 -99.90612 31925 ft 373 kts 266°
2026-04-25 23:24 19.36173 -99.93406 31925 ft 386 kts 266°
2026-04-25 23:24 19.35990 -99.96292 31921 ft 399 kts 266°
2026-04-25 23:24 19.35800 -99.99267 31924 ft 411 kts 266°
2026-04-25 23:25 19.35605 -100.02325 31916 ft 422 kts 266°
2026-04-25 23:25 19.35204 -100.08587 31898 ft 425 kts 266°
2026-04-25 23:26 19.35293 -100.14736 31892 ft 415 kts 285°
2026-04-25 23:26 19.37164 -100.20554 31903 ft 420 kts 290°
2026-04-25 23:27 19.39179 -100.26401 31895 ft 425 kts 290°
2026-04-25 23:27 19.41161 -100.32295 31901 ft 421 kts 289°
2026-04-25 23:28 19.43070 -100.38081 31893 ft 412 kts 289°
2026-04-25 23:28 19.44945 -100.43792 31904 ft 414 kts 289°
2026-04-25 23:29 19.46834 -100.49556 31910 ft 414 kts 289°
2026-04-25 23:29 19.48723 -100.55321 31934 ft 412 kts 289°
2026-04-25 23:30 19.50609 -100.61087 31997 ft 418 kts 289°
2026-04-25 23:30 19.52469 -100.66775 31998 ft 419 kts 289°
2026-04-25 23:31 19.54397 -100.72679 32003 ft 418 kts 289°
2026-04-25 23:31 19.56346 -100.78482 32001 ft 417 kts 290°
2026-04-25 23:32 19.58325 -100.84247 32001 ft 415 kts 290°
2026-04-25 23:32 19.60287 -100.89977 31993 ft 412 kts 290°
2026-04-25 23:33 19.62228 -100.95672 31999 ft 410 kts 290°
2026-04-25 23:33 19.64159 -101.01352 31997 ft 410 kts 290°
2026-04-25 23:34 19.66093 -101.07053 32010 ft 412 kts 289°
2026-04-25 23:34 19.68039 -101.12794 32008 ft 415 kts 289°
2026-04-25 23:35 19.69992 -101.18564 32007 ft 416 kts 289°
2026-04-25 23:35 19.71949 -101.24351 31998 ft 417 kts 289°
2026-04-25 23:36 19.73903 -101.30136 32000 ft 416 kts 289°
2026-04-25 23:36 19.75856 -101.35925 32004 ft 416 kts 289°
2026-04-25 23:37 19.77791 -101.41667 32000 ft 415 kts 289°
2026-04-25 23:37 19.79733 -101.47438 32000 ft 415 kts 289°
2026-04-25 23:38 19.81669 -101.53199 32003 ft 414 kts 289°
2026-04-25 23:38 19.83602 -101.58954 32003 ft 414 kts 289°
2026-04-25 23:39 19.85531 -101.64708 32001 ft 413 kts 289°
2026-04-25 23:39 19.87456 -101.70454 32001 ft 413 kts 289°
2026-04-25 23:40 19.89378 -101.76200 32001 ft 412 kts 289°
2026-04-25 23:40 19.91297 -101.81942 31998 ft 413 kts 289°
2026-04-25 23:41 19.93216 -101.87694 32003 ft 413 kts 289°
2026-04-25 23:41 19.95135 -101.93452 32001 ft 414 kts 289°
2026-04-25 23:42 19.97055 -101.99218 32003 ft 414 kts 289°
2026-04-25 23:42 19.98963 -102.04955 32005 ft 414 kts 289°
2026-04-25 23:43 20.00878 -102.10721 31999 ft 413 kts 289°
2026-04-25 23:43 20.02790 -102.16485 32002 ft 413 kts 289°
2026-04-25 23:44 20.04694 -102.22232 32001 ft 412 kts 289°
2026-04-25 23:44 20.06591 -102.27967 32001 ft 410 kts 289°
2026-04-25 23:45 20.08484 -102.33693 31997 ft 410 kts 289°
2026-04-25 23:45 20.10369 -102.39405 32000 ft 409 kts 289°
2026-04-25 23:46 20.12252 -102.45115 32003 ft 409 kts 289°
2026-04-25 23:46 20.14133 -102.50829 32003 ft 409 kts 289°
2026-04-25 23:47 20.16015 -102.56552 32001 ft 410 kts 289°
2026-04-25 23:47 20.17896 -102.62279 32002 ft 410 kts 289°
2026-04-25 23:48 20.19777 -102.68003 32001 ft 410 kts 290°
2026-04-25 23:48 20.22298 -102.73439 32004 ft 410 kts 299°
2026-04-25 23:49 20.25102 -102.78720 32000 ft 410 kts 299°
2026-04-25 23:49 20.27895 -102.84011 32001 ft 410 kts 299°
2026-04-25 23:50 20.30647 -102.89290 32001 ft 410 kts 298°
2026-04-25 23:50 20.33406 -102.94611 32000 ft 410 kts 298°
2026-04-25 23:51 20.36164 -102.99937 31998 ft 411 kts 298°
2026-04-25 23:51 20.38924 -103.05273 32010 ft 411 kts 298°
2026-04-25 23:52 20.41686 -103.10616 32002 ft 411 kts 298°
2026-04-25 23:52 20.44444 -103.15957 32002 ft 411 kts 298°
2026-04-25 23:53 20.47178 -103.21255 32000 ft 410 kts 298°
2026-04-25 23:53 20.49921 -103.26577 32001 ft 409 kts 298°
2026-04-25 23:54 20.52603 -103.31919 31996 ft 408 kts 293°
2026-04-25 23:54 20.54355 -103.36639 32000 ft 408 kts 290°
2026-04-25 23:55 20.56303 -103.42297 31981 ft 399 kts 290°
2026-04-25 23:55 20.57246 -103.45027 31981 ft 385 kts 290°
2026-04-25 23:55 20.58166 -103.47669 31980 ft 373 kts 290°
2026-04-25 23:55 20.59060 -103.50216 31984 ft 360 kts 290°
2026-04-25 23:56 20.59929 -103.52683 31885 ft 352 kts 290°
2026-04-25 23:56 20.60775 -103.55081 31638 ft 348 kts 290°
2026-04-25 23:56 20.61629 -103.57497 31244 ft 349 kts 290°
2026-04-25 23:56 20.62493 -103.59942 30557 ft 358 kts 290°
2026-04-25 23:57 20.63397 -103.62498 29347 ft 382 kts 290°
2026-04-25 23:57 20.64349 -103.65194 28533 ft 391 kts 290°
2026-04-25 23:57 20.65309 -103.67915 28066 ft 390 kts 290°
2026-04-25 23:57 20.66257 -103.70602 27751 ft 384 kts 290°
2026-04-25 23:58 20.67192 -103.73252 27397 ft 380 kts 290°
2026-04-25 23:58 20.68119 -103.75884 26976 ft 377 kts 290°
2026-04-25 23:58 20.69043 -103.78506 26539 ft 376 kts 290°
2026-04-25 23:58 20.69958 -103.81106 26113 ft 374 kts 290°
2026-04-25 23:59 20.70871 -103.83700 25700 ft 372 kts 290°
2026-04-25 23:59 20.71776 -103.86275 25315 ft 369 kts 290°
2026-04-25 23:59 20.72673 -103.88825 24913 ft 366 kts 290°
2026-04-25 23:59 20.73565 -103.91367 24513 ft 364 kts 290°
2026-04-26 00:00 20.74450 -103.93887 24121 ft 361 kts 290°
2026-04-26 00:00 20.75330 -103.96395 23719 ft 359 kts 290°
2026-04-26 00:00 20.76205 -103.98890 23325 ft 357 kts 290°
2026-04-26 00:00 20.77073 -104.01366 22940 ft 355 kts 290°
2026-04-26 00:01 20.77935 -104.03828 22548 ft 353 kts 290°
2026-04-26 00:01 20.78790 -104.06270 22161 ft 350 kts 290°
2026-04-26 00:01 20.79641 -104.08701 21778 ft 348 kts 290°
2026-04-26 00:01 20.80486 -104.11117 21394 ft 346 kts 290°
2026-04-26 00:02 20.81327 -104.13522 20999 ft 344 kts 290°
2026-04-26 00:02 20.82162 -104.15914 20605 ft 343 kts 290°
2026-04-26 00:02 20.82995 -104.18299 20223 ft 341 kts 290°
2026-04-26 00:02 20.83821 -104.20665 19860 ft 339 kts 290°
2026-04-26 00:03 20.84640 -104.23012 19520 ft 336 kts 290°
2026-04-26 00:03 20.85196 -104.25385 19122 ft 334 kts 273°
2026-04-26 00:03 20.85005 -104.27846 18726 ft 332 kts 261°
2026-04-26 00:03 20.84603 -104.30269 18351 ft 331 kts 259°
2026-04-26 00:04 20.84181 -104.32677 17975 ft 329 kts 259°
2026-04-26 00:04 20.83768 -104.35073 17606 ft 327 kts 259°
2026-04-26 00:04 20.83369 -104.37460 17237 ft 325 kts 260°
2026-04-26 00:04 20.82981 -104.39832 16862 ft 324 kts 260°
2026-04-26 00:05 20.82598 -104.42195 16493 ft 322 kts 260°
2026-04-26 00:05 20.82224 -104.44547 16123 ft 320 kts 262°
2026-04-26 00:05 20.82232 -104.46911 15745 ft 318 kts 276°
2026-04-26 00:05 20.82510 -104.49246 15385 ft 316 kts 277°
2026-04-26 00:06 20.82800 -104.51572 15012 ft 315 kts 277°
2026-04-26 00:06 20.83078 -104.53887 14647 ft 313 kts 277°
2026-04-26 00:06 20.83341 -104.56194 14273 ft 312 kts 277°
2026-04-26 00:06 20.83594 -104.58490 13902 ft 311 kts 276°
2026-04-26 00:07 20.83843 -104.60782 13559 ft 308 kts 276°
2026-04-26 00:07 20.84087 -104.63031 13370 ft 301 kts 276°
2026-04-26 00:07 20.84325 -104.65226 13166 ft 295 kts 276°
2026-04-26 00:07 20.84559 -104.67384 12905 ft 291 kts 276°
2026-04-26 00:08 20.84790 -104.69523 12599 ft 289 kts 276°
2026-04-26 00:08 20.85020 -104.71650 12298 ft 287 kts 276°
2026-04-26 00:08 20.85248 -104.73763 11998 ft 285 kts 276°
2026-04-26 00:08 20.85475 -104.75858 11697 ft 283 kts 276°
2026-04-26 00:09 20.85699 -104.77944 11405 ft 282 kts 276°
2026-04-26 00:09 20.85922 -104.80012 11133 ft 277 kts 276°
2026-04-26 00:09 20.86138 -104.82023 10844 ft 268 kts 276°
2026-04-26 00:09 20.86347 -104.83974 10527 ft 261 kts 276°
2026-04-26 00:10 20.86551 -104.85879 10215 ft 254 kts 276°
2026-04-26 00:10 20.86750 -104.87732 9908 ft 249 kts 276°
2026-04-26 00:10 20.86945 -104.89548 9597 ft 243 kts 276°
2026-04-26 00:10 20.87135 -104.91329 9288 ft 239 kts 276°
2026-04-26 00:11 20.87321 -104.93074 8987 ft 234 kts 276°
2026-04-26 00:11 20.87502 -104.94770 8840 ft 223 kts 276°
2026-04-26 00:11 20.87672 -104.96366 8713 ft 212 kts 276°
2026-04-26 00:11 20.87839 -104.97926 8451 ft 210 kts 276°
2026-04-26 00:12 20.88006 -104.99477 8149 ft 211 kts 277°
2026-04-26 00:12 20.88146 -105.01011 7815 ft 209 kts 274°
2026-04-26 00:12 20.88192 -105.02558 7417 ft 206 kts 264°
2026-04-26 00:12 20.87824 -105.04026 6986 ft 206 kts 245°
2026-04-26 00:13 20.86997 -105.05301 6504 ft 212 kts 225°
2026-04-26 00:13 20.85909 -105.06356 6073 ft 211 kts 220°
2026-04-26 00:13 20.84793 -105.07361 5607 ft 210 kts 220°
2026-04-26 00:13 20.83649 -105.08372 4922 ft 218 kts 220°
2026-04-26 00:14 20.82477 -105.09407 4341 ft 218 kts 220°
2026-04-26 00:14 20.81356 -105.10490 3842 ft 216 kts 225°
2026-04-26 00:14 20.80336 -105.11653 3349 ft 213 kts 227°
2026-04-26 00:14 20.79323 -105.12771 2783 ft 205 kts 225°
2026-04-26 00:15 20.78355 -105.13821 2390 ft 187 kts 226°
2026-04-26 00:15 20.77476 -105.14757 2075 ft 169 kts 225°
2026-04-26 00:15 20.76657 -105.15626 1641 ft 164 kts 227°
2026-04-26 00:15 20.75907 -105.16474 1413 ft 151 kts 227°
2026-04-26 00:16 20.75194 -105.17283 1167 ft 148 kts 227°
2026-04-26 00:16 20.74514 -105.18067 1044 ft 143 kts 227°
2026-04-26 00:16 20.73846 -105.18838 984 ft 140 kts 227°
2026-04-26 00:16 20.73166 -105.19577 904 ft 140 kts 225°
2026-04-26 00:17 20.72496 -105.20276 815 ft 142 kts 225°
2026-04-26 00:17 20.71786 -105.21053 704 ft 149 kts 227°
2026-04-26 00:17 20.71069 -105.21873 591 ft 153 kts 227°
2026-04-26 00:17 20.70334 -105.22726 418 ft 158 kts 228°
2026-04-26 00:18 20.69589 -105.23590 271 ft 160 kts 227°
2026-04-26 00:18 20.68853 -105.24442 43 ft 160 kts 227°
2026-04-26 00:18 20.68190 -105.25208 28 ft 121 kts 227°
2026-04-26 00:18 20.67760 -105.25702 28 ft 60 kts 226°
2026-04-26 00:19 20.67587 -105.25880 27 ft 30 kts 211°
2026-04-26 00:19 20.67420 -105.25958 28 ft 18 kts 193°
2026-04-26 00:19 20.67357 -105.25914 28 ft 11 kts 69°
2026-04-26 00:19 20.67406 -105.25853 28 ft 11 kts 48°
2026-04-26 00:20 20.67454 -105.25796 28 ft 10 kts 48°
2026-04-26 00:20 20.67502 -105.25740 28 ft 11 kts 48°
2026-04-26 00:20 20.67567 -105.25668 28 ft 17 kts 45°
2026-04-26 00:20 20.67661 -105.25559 28 ft 22 kts 48°
2026-04-26 00:21 20.67765 -105.25433 28 ft 22 kts 48°
2026-04-26 00:21 20.67871 -105.25319 28 ft 21 kts 45°
2026-04-26 00:21 20.67970 -105.25206 28 ft 21 kts 48°
2026-04-26 00:21 20.68049 -105.25113 28 ft 14 kts 47°
2026-04-26 00:22 20.68086 -105.25039 28 ft 9 kts 108°
2026-04-26 00:22 20.68044 -105.24990 28 ft 9 kts 137°
2026-04-26 00:22 20.67998 -105.24946 28 ft 9 kts 139°
2026-04-26 00:22 20.67986 -105.24894 28 ft 8 kts 65°
2026-04-26 00:23 20.67990 -105.24835 28 ft 9 kts 116°
2026-04-26 00:23 20.67942 -105.24840 28 ft 5 kts 223°
2026-04-26 00:23 20.67931 -105.24853 28 ft 0 kts 226°